Content
SEND FEEDBACK

Daily
Averages
Monthly
Summary
United States of America

PERRY WILDLIFE AREA, KANSAS


Home > North America > United States > Kansas
Elevation: 910 feet     Latitude: 39 21N     Longitude: 095 28W

WEATHER
 
SELECT A DAY
Number of Records: 204,115;   Date Range: 1/1/95 - 7/22/14
 
SHARE

PRINT THIS DATA

[ ← Previous Day ]
WEATHER ALMANAC - JANUARY 31, 2013
[ Next Day → ]
[ °C ]   °F
Weather ElementAverageHighLow
Temperature17.6 °F23 °F (4:53 am)10 °F (11:53 pm)
Dewpoint7.7 °F16 °F (3:53 am)1 °F (6:53 pm)
Humidity65.5 %78 % (2:53 am)54 % (3:53 pm)
Barometer30.28 in30.53 in (10:53 pm)30.00 in (3:53 am)
Wind Speed9.3 mph19.6 mph (11:53 am)
Wind Gust29.9 mph (11:53 am)
Weather ElementAverage
Visibility10 mi
Wind DirectionWSW (255 °)

Weather ElementTotal
Precipitation---
Heating Degree Days48.5 (Base 65)
Averaged from 22 records on January 31, 2013
WEATHER CONDITIONS BREAKOUT
WIND DIRECTION BREAKOUT
WEATHER BY HOUR - JANUARY 31, 2013
[ °C ]   °F
Local TimeTemperatureDewpointHumidityBarometerVisibilityWind DirectionWind SpeedGust SpeedPrecipitationEventsConditions
1:53 AM17.1 °F10.9 °F77 %30.02 in10.0 miCalmScattered Clouds
2:53 AM21.0 °F15.1 °F78 %30.01 in10.0 miSSW (210°)6.9 mphOvercast
3:53 AM21.9 °F16.0 °F78 %30.00 in10.0 miCalmOvercast
4:53 AM23.0 °F16.0 °F74 %30.00 in10.0 miCalmScattered Clouds
5:53 AM21.9 °F16.0 °F78 %30.04 in10.0 miNNW (330°)5.8 mphScattered Clouds
6:53 AM21.9 °F15.1 °F75 %30.08 in10.0 miNNW (340°)10.4 mphMostly Cloudy
7:53 AM21.9 °F12.9 °F68 %30.12 in10.0 miNNW (340°)9.2 mphMostly Cloudy
8:53 AM21.0 °F12.9 °F71 %30.17 in10.0 miNorth (350°)11.5 mphMostly Cloudy
9:53 AM21.0 °F10.0 °F63 %30.21 in10.0 miNNW (330°)18.4 mph24.2 mphOvercast
10:53 AM19.9 °F8.1 °F60 %30.27 in10.0 miNNW (330°)16.1 mphOvercast
11:53 AM19.9 °F8.1 °F60 %30.30 in10.0 miNNW (330°)19.6 mph29.9 mph0.00 inOvercast
12:53 PM21.0 °F7.0 °F55 %30.31 in10.0 miNW (320°)18.4 mph29.9 mphOvercast
2:53 PM17.1 °F5.0 °F59 %30.35 in10.0 miWNW (300°)18.4 mph25.3 mphScattered Clouds
3:53 PM18.0 °F3.9 °F54 %30.38 in10.0 miNW (310°)16.1 mph29.9 mphClear
4:53 PM17.1 °F3.0 °F54 %30.40 in10.0 miNNW (330°)18.4 mph27.6 mphClear
5:53 PM14.0 °F1.9 °F59 %30.42 in10.0 miNW (310°)11.5 mphClear
6:53 PM12.0 °F1.0 °F61 %30.45 in10.0 miNW (310°)6.9 mphClear
7:53 PM12.0 °F1.0 °F61 %30.46 in10.0 miWNW (300°)4.6 mphClear
8:53 PM12.0 °F1.0 °F61 %30.51 in10.0 miWSW (240°)4.6 mphClear
9:53 PM12.0 °F1.0 °F61 %30.52 in10.0 miNNW (330°)3.5 mphClear
10:53 PM10.9 °F1.0 °F64 %30.53 in10.0 miWNW (300°)3.5 mphClear
11:53 PM10.0 °F1.9 °F70 %30.53 in10.0 miCalmClear
Hourly data recorded from KTOP, located miles away from Perry Wildlife Area, Kansas







STORIES FROM OUR PARTNERS